Zurück zum Katalog

HULIANWANG DIGUI-93

AktivKommunikationLEO
NORAD 66001·PAYLOAD·🇨🇳 China

Gestartet Oct 16, 2025 von Wenchang Space Launch Site

Loading…

Nächste Überflüge (nächste 24 Stunden)

TLE

AktuellSource: Space-Track

Epoche: Sep 14, 2026, 04:51 UTC

1 66001U 25231G   26257.20255315 -.00000104  00000-0  43607-4 0  9991
2 66001  50.0006 216.1767 0000343  40.8370 319.2527 13.29327731 44733

Verfolge HULIANWANG DIGUI-93 in Echtzeit mit AllMySat

Download on the App Store